This is the latest recevied weather packets stored in our database for station/object W4JCW. If no packets are shown the sender has not sent any weather packets the latest 10 day(s).
| Time | Temp. | Humidity | Pressure | Rain* | Wind** | Luminosity | Snow |
|---|---|---|---|---|---|---|---|
| 1777918556 | 26.11° C | 27% | 1014.6 hPa | 0 mm | - | 832 W/m² | - |
| 1777918254 | 26.11° C | 27% | 1014.6 hPa | 0 mm | - | 904 W/m² | - |
| 1777917953 | 26.11° C | 28% | 1014.6 hPa | 0 mm | - | 898 W/m² | - |
| 1777917651 | 26.11° C | 27% | 1014.7 hPa | 0 mm | - | 858 W/m² | - |
| 1777917348 | 25.56° C | 30% | 1014.6 hPa | 0 mm | - | 911 W/m² | - |
| 1777917045 | 25.56° C | 28% | 1014.8 hPa | 0 mm | - | 979 W/m² | - |
| 1777916743 | 25.56° C | 28% | 1014.6 hPa | 0 mm | - | 810 W/m² | - |
| 1777916439 | 25.56° C | 30% | 1014.7 hPa | 0 mm | - | 807 W/m² | - |
| 1777916136 | 25.56° C | 30% | 1014.9 hPa | 0 mm | - | 777 W/m² | - |
| 1777915833 | 25° C | 32% | 1014.9 hPa | 0 mm | - | 634 W/m² | - |
| 1777915530 | 25° C | 31% | 1014.7 hPa | 0 mm | - | 576 W/m² | - |
| 1777915226 | 25° C | 34% | 1015.1 hPa | 0 mm | - | 428 W/m² | - |
| 1777914923 | 25° C | 33% | 1015 hPa | 0 mm | - | 130 W/m² | - |
| 1777914620 | 25° C | 32% | 1015 hPa | 0 mm | - | 76 W/m² | - |
| 1777914316 | 25° C | 31% | 1015.3 hPa | 0 mm | - | 163 W/m² | - |
| 1777914014 | 25° C | 33% | 1015.2 hPa | 0 mm | - | 277 W/m² | - |
| 1777913709 | 25° C | 33% | 1015.3 hPa | 0 mm | - | 207 W/m² | - |
| 1777913406 | 24.44° C | 34% | 1015.3 hPa | 0 mm | - | 306 W/m² | - |
| 1777913103 | 24.44° C | 35% | 1015.3 hPa | 0 mm | - | 131 W/m² | - |
| 1777912799 | 24.44° C | 34% | 1015.4 hPa | 0 mm | - | 151 W/m² | - |
| 1777912495 | 24.44° C | 36% | 1015.5 hPa | 0 mm | - | 79 W/m² | - |
| 1777912192 | 24.44° C | 36% | 1015.7 hPa | 0 mm | - | 218 W/m² | - |
| 1777911888 | 24.44° C | 36% | 1015.6 hPa | 0 mm | - | 93 W/m² | - |
| 1777911585 | 24.44° C | 37% | 1015.5 hPa | 0 mm | - | 114 W/m² | - |
| 1777911281 | 23.89° C | 36% | 1015.7 hPa | 0 mm | - | 417 W/m² | - |
* Rain latest hour (hover to see other rain measurements)
** Current wind speed in m/s (hover to see current wind gust speed)